Flag for Canada Weather past 2 weeks in Montreal, Quebec, Canada

Now
3 °F

Clear.


Feels Like: -9 °F
Forecast: -5 / 8 °F
Wind: 7 mph from Northwest

Location: Montreal - Pierre Elliot Trudeau International Aiport

Current Time: Jan 25, 2015 at 10:23:53 PM

Latest Report: Jan 25, 2015 at 10:00 PM


Visibility: 15 mi

Pressure: 30.13 "Hg

Humidity: 60%

Dew point: -8 °F

Location of MontrealLocation

Historic Weather in Montreal — Graph

°F

Montreal temperature yesterday

Maximum temperature yesterday: 30 °F (at 12:00 PM)
Minimum temperature yesterday: 27 °F (at 12:00 AM)
Average temperature yesterday: 28 °F

Past Weeks' High & Low Weather Summary

 TemperatureHumidityPressure
High36 °F (Jan 18, 1:00 PM)100% (Jan 19, 4:00 AM)30.84 "Hg (Jan 19, 4:00 AM)
Low-9 °F (Jan 17, 5:00 AM)45% (Jan 17, 1:00 PM)29.30 "Hg (Jan 25, 1:00 AM)
Average13 °F71%30.08 "Hg
* Reported Jan 10 9:00 PM — Jan 25 9:00 PM, Montreal, Weather by CustomWeather, © 2014

Note: Actual official high and low records may vary slightly from our data, if they occured in-between our weather recording intervals... More about our weather records

Advertising

Montreal weather history for previous 24 hours

 ConditionsComfort  
Time TempWeatherWind HumidityBarometerVisibility
9:00 PM
Jan 25
5 °FClear.13 mph55%30.11 "Hg15 mi
8:00 PM7 °FClear.12 mph51%30.08 "Hg15 mi
7:00 PM7 °FClear.13 mph56%30.05 "Hg15 mi
6:00 PM7 °FPassing clouds.14 mph56%30.01 "Hg15 mi
5:00 PM9 °FPassing clouds.13 mph56%29.96 "Hg15 mi
4:00 PM10 °FPassing clouds.15 mph52%29.92 "Hg30 mi
3:00 PM10 °FPassing clouds.18 mph52%29.89 "Hg30 mi
2:00 PM10 °FPassing clouds.17 mph52%29.86 "Hg30 mi
1:00 PM9 °FPassing clouds.15 mph51%29.85 "Hg30 mi
12:00 PM7 °FPassing clouds.20 mph56%29.83 "Hg15 mi
11:00 AM7 °FPassing clouds.17 mph56%29.82 "Hg15 mi
10:00 AM5 °FPassing clouds.18 mph60%29.79 "Hg15 mi
9:00 AM7 °FPassing clouds.16 mph56%29.75 "Hg15 mi
8:00 AM7 °FPassing clouds.17 mph61%29.71 "Hg15 mi
7:00 AM7 °FPassing clouds.15 mph61%29.66 "Hg15 mi
6:00 AM10 °FLow level haze.23 mph56%29.58 "Hg15 mi
5:00 AM16 °FPartly cloudy.18 mph62%29.50 "Hg15 mi
4:00 AM21 °FOvercast.22 mph63%29.43 "Hg15 mi
3:00 AM27 °FOvercast.18 mph69%29.35 "Hg15 mi
2:00 AM28 °FLight snow. Mostly cloudy.12 mph93%29.31 "Hg4 mi
1:00 AM28 °FLight snow. Low clouds.13 mph93%29.30 "Hg4 mi
12:00 AM28 °FLight snow. Overcast.13 mph86%29.30 "Hg3 mi
11:00 PM
Jan 24
28 °FMostly cloudy.13 mph86%29.31 "Hg7 mi
10:00 PM28 °FLight snow. Overcast.13 mph86%29.31 "Hg8 mi
Weather by CustomWeather, © 2014

See weather overviewHow to use our weather pages